FW9411 Weather Reports


Display with metric or nautical units.
time (UTC)temp
F
wind
direction
speed
MPH
gust
MPH
rain 1hr
in
rain 24hr
in
rain mn
in
humidity
%
barometer
mb
20260510190052 79 194 3.0 11.0 0.00 0.01 0.00 84 1016.3
20260510184558 83 181 9.0 17.0 0.00 0.01 0.00 70 1016.3
20260510183053 88 150 7.0 15.0 0.00 0.01 0.00 63 1016.5
20260510181607 90 159 8.0 20.0 0.00 0.01 0.00 59 1016.5
20260510180107 87 140 6.0 14.0 0.00 0.01 0.00 63 1016.3
20260510174555 90 196 3.0 10.0 0.00 0.01 0.00 56 1016.3
20260510173059 93 180 3.0 10.0 0.00 0.01 0.00 53 1016.4
20260510171551 92 155 3.0 10.0 0.00 0.01 0.00 54 1016.7
20260510170052 91 217 2.0 8.0 0.00 0.01 0.00 57 1017.0
20260510164600 89 137 2.0 9.0 0.00 0.01 0.00 61 1017.3
20260510163054 90 214 2.0 7.0 0.00 0.01 0.00 61 1017.6
20260510161604 91 179 3.0 7.0 0.00 0.01 0.00 59 1017.6
20260510160055 89 215 5.0 11.0 0.00 0.01 0.00 63 1017.5
20260510154557 89 144 3.0 10.0 0.00 0.01 0.00 65 1017.5
20260510153101 88 161 3.0 8.0 0.00 0.01 0.00 65 1017.4
20260510151555 86 114 4.0 13.0 0.00 0.01 0.00 68 1017.5
20260510150124 85 208 5.0 10.0 0.00 0.01 0.00 70 1017.4
20260510144555 85 213 4.0 9.0 0.00 0.01 0.00 72 1017.3
20260510143056 83 140 5.0 11.0 0.00 0.01 0.00 75 1017.2
20260510141552 82 146 6.0 10.0 0.00 0.01 0.00 78 1017.2
20260510140052 81 134 4.0 8.0 0.00 0.01 0.00 80 1017.4
20260510134551 80 129 4.0 8.0 0.00 0.01 0.00 83 1017.3
20260510133051 79 151 3.0 8.0 0.00 0.01 0.00 86 1017.1
20260510131552 79 145 2.0 7.0 0.00 0.01 0.00 87 1017.0
20260510130055 77 128 2.0 6.0 0.00 0.01 0.00 90 1017.0
20260510124555 76 186 1.0 3.0 0.00 0.01 0.00 92 1016.9
20260510123056 75 144 1.0 4.0 0.00 0.01 0.00 92 1016.7
20260510121548 75 148 1.0 3.0 0.00 0.01 0.00 93 1016.6
20260510120054 74 140 2.0 5.0 0.00 0.01 0.00 94 1016.2
20260510114559 74 148 0.0 2.0 0.00 0.01 0.00 94 1016.1
20260510113054 73 0 0.0 3.0 0.00 0.01 0.00 95 1015.9
20260510111602 73 0 0.0 0.0 0.00 0.01 0.00 95 1015.5
20260510110052 73 0 0.0 2.0 0.00 0.01 0.00 95 1015.4
20260510104552 73 138 2.0 5.0 0.00 0.01 0.00 95 1015.3
20260510103059 73 0 0.0 2.0 0.00 0.01 0.00 95 1015.2
20260510101558 73 0 1.0 4.0 0.00 0.01 0.00 95 1014.7
20260510100052 73 0 0.0 3.0 0.00 0.01 0.00 95 1014.7
20260510094604 74 173 1.0 5.0 0.00 0.01 0.00 94 1014.5
20260510093111 74 142 1.0 4.0 0.00 0.01 0.00 94 1014.5
20260510091554 74 149 2.0 5.0 0.00 0.01 0.00 94 1014.4
20260510090114 74 144 2.0 5.0 0.00 0.01 0.00 94 1014.3
20260510084552 74 96 0.0 3.0 0.00 0.01 0.00 94 1014.0
20260510083105 74 121 1.0 6.0 0.00 0.01 0.00 94 1013.9
20260510081553 74 119 2.0 6.0 0.00 0.01 0.00 94 1013.8
20260510080059 74 128 1.0 4.0 0.00 0.01 0.00 94 1014.1
20260510074554 74 131 2.0 6.0 0.00 0.01 0.00 94 1014.1
20260510073056 74 118 1.0 7.0 0.00 0.01 0.00 94 1014.4
20260510071613 74 128 1.0 4.0 0.00 0.01 0.00 94 1014.4
20260510070051 73 140 1.0 3.0 0.00 0.01 0.00 94 1014.4
20260510064600 73 109 1.0 6.0 0.00 0.01 0.00 94 1014.8
20260510063052 73 167 2.0 4.0 0.00 0.01 0.00 94 1015.0
20260510061558 73 100 0.0 3.0 0.00 0.01 0.00 94 1015.2
20260510060055 73 101 2.0 4.0 0.00 0.01 0.00 95 1015.3
20260510054552 73 0 0.0 0.0 0.00 0.01 0.00 95 1015.3
20260510053054 73 0 0.0 3.0 0.00 0.01 0.00 94 1015.5
20260510051601 73 98 0.0 3.0 0.00 0.01 0.00 94 1015.6
20260510050054 73 0 0.0 1.0 0.00 0.01 0.00 94 1015.9
20260510044610 73 100 0.0 2.0 0.00 0.01 0.00 94 1016.0
20260510043053 73 0 0.0 1.0 0.00 0.01 0.00 94 1016.0
20260510041558 73 0 0.0 2.0 0.00 0.01 0.00 94 1016.2
20260510040059 73 0 0.0 1.0 0.00 0.01 0.00 93 1016.1
20260510034552 73 0 0.0 1.0 0.00 0.01 0.01 93 1016.2
20260510033102 73 11 0.0 2.0 0.00 0.01 0.01 93 1016.0
20260510031553 73 11 0.0 2.0 0.00 0.01 0.01 92 1016.1
20260510024553 73 0 0.0 3.0 0.00 0.01 0.01 91 1015.7
20260510023054 74 74 0.0 2.0 0.00 0.01 0.01 90 1015.6
20260510021559 74 0 0.0 2.0 0.00 0.01 0.01 88 1015.6
20260510020056 74 0 0.0 2.0 0.00 0.01 0.01 88 1015.6
20260510014556 75 0 0.0 3.0 0.00 0.01 0.01 87 1015.3
20260510013055 75 346 1.0 4.0 0.00 0.01 0.01 87 1015.2
20260510011600 75 347 1.0 3.0 0.00 0.01 0.01 87 1015.1
20260510010058 75 300 1.0 5.0 0.00 0.01 0.01 86 1015.1
20260510004556 76 332 3.0 9.0 0.01 0.01 0.01 87 1015.1
20260510003100 76 352 3.0 11.0 0.01 0.01 0.01 90 1014.5
20260510001557 76 316 4.0 9.0 0.01 0.01 0.01 90 1014.2
20260510000058 77 347 2.0 6.0 0.01 0.01 0.01 89 1014.2
20260509234555 78 330 2.0 10.0 0.00 0.00 0.00 87 1014.0
20260509233054 78 347 3.0 9.0 0.00 0.00 0.00 86 1013.8
20260509231552 79 14 3.0 9.0 0.00 0.00 0.00 85 1013.7
20260509230059 79 336 2.0 8.0 0.00 0.00 0.00 84 1013.7
20260509224629 80 19 5.0 13.0 0.00 0.00 0.00 83 1013.5
20260509223057 82 332 5.0 12.0 0.00 0.00 0.00 80 1013.2
20260509221555 83 335 5.0 13.0 0.00 0.00 0.00 76 1013.1
20260509220106 85 338 6.0 12.0 0.00 0.00 0.00 72 1012.8
20260509214600 86 292 4.0 7.0 0.00 0.00 0.00 68 1012.7
20260509213119 85 348 3.0 6.0 0.00 0.00 0.00 71 1012.7
20260509211554 84 333 2.0 7.0 0.00 0.00 0.00 75 1012.5
20260509210106 83 311 2.0 8.0 0.00 0.00 0.00 76 1012.5
20260509204555 83 301 0.0 2.0 0.00 0.00 0.00 77 1012.6
20260509203058 82 277 0.0 2.0 0.00 0.00 0.00 75 1012.4
20260509201554 82 0 1.0 4.0 0.00 0.00 0.00 74 1012.5
20260509194556 88 257 5.0 16.0 0.00 0.00 0.00 61 1012.7
20260509193054 91 223 5.0 15.0 0.00 0.00 0.00 52 1012.4
20260509191550 93 243 3.0 11.0 0.00 0.00 0.00 50 1012.3